STARLINK-32023, 60197

Orbit data source: Space-Track

STARLINK-32023, 60197 is a payload satellite owned by SpaceX/Seattle (US) in LEO that was launched on Wed, 03 Jul 2024 UTC via an FALCON 9 launch vehicle from the Air Force Eastern Test Range (AFETR). Payload-class satellites include a variety of spacecraft equipped with specific instruments for various scientific and technological missions. These include communications satellites like Starlink; space stations such as the ISS; scientific satellites like the Hubble; Earth observation satellites from companies like Planet Labs, Umbra, and HawkEye 360; GPS; miniature CubeSats for education and research; and military/defense satellites.

Loading next visibility...
Identifier
60197, 2024-124Q
Orbit
LEO
Country
Flag of USUS
Related business
Manufacturer
SpaceX/Seattle
Mission
Operational Commercial Communications
Bus & Motor
STARLINK V2M, Unknown motor
Mass
730 kg wet, ~700 kg dry
Launch date (UTC)
2024-07-03 (2 years ago)
Launch vehicle
FALCON 9
Launch site
Air Force Eastern Test Range (AFETR)
Object type
Payload
Rocket body
Debris
Shape & HBR
Box + 2 Pan, 17.7 m
Radar Cross Section
33.884 m², Large (>1 m²)

Expand to show TLE details & history
Last TLE update: 17 hours ago

TLE from 17 hours ago
0 STARLINK-32023
1 60197U 24124Q   26125.23907801  .00000823  00000-0  35494-4 0  9994
2 60197  53.1614  59.8348 0001111  83.0803 277.0326 15.34405915102959
Epoch: 2026-05-05T05:44Z
TLE epoch observation values (Epoch: 2026-05-05T05:44:16.340Z)
Latitude
Longitude
110.64994°
Altitude
463.494 km
Speed
7.636 km/s
True Right ascension
03h 59m 20s
True Declination
0° 00' 00"
Sunlit
Object was in daylight at epoch
Visualization orbit readout
Latitude
Unknown
Longitude
Unknown
Altitude
Unknown
Speed
Unknown
Apparent Right ascension
Unknown
Apparent Declination
Unknown
Sunlit
N/A
Visualization observer readout
Local Sidereal Time
07:00:47
Azimuth
Unknown
Elevation
Unknown
Doppler factor
Unknown
Orbital elements
Apogee altitude
463.702 km
Perigee altitude
462.182 km
Semi-major axis
6,841.079 km
Eccentricity
0.00011
Inclination
53.1614°
RAAN
59.8348°
Arg. of periapsis
83.0803°
True anomaly
277.01996°
Mean anomaly
277.0326°
Eccentric anomaly
277.02628°
Mean motion
3.8358 °/min
Orbital period
93.85 mins
BSTAR
0.000035494
Loading maneuver chart data...
Computing Atmospheric mass density...
Loading historical data...
Loading historical data...
Loading historical data...
Loading historical data...
Loading historical data...
Loading historical data...
Loading historical data...

Documentation

Showing up to 5 results
|